Temperature
7 7 7 7 7 7 7 7 7 8 8 7 7 7 7 7 7 7 7 8 8 8 8 8 8 9 9 10 11 12 12 13 14 14 15 14 14 14 15 15 15 16 16
7 7 8 7 7 7 7 7 7 7 7 7 7 6 6 6 6 6 6 6 7 7 7 7 8 8 8 9 9 10 11 12 13 14 14 14 14 14 14 14 15 15 15
7 8 8 8 7 7 7 7 7 7 7 6 6 6 5 5 5 5 5 5 5 5 6 6 6 7 7 8 8 9 9 10 11 13 13 13 14 13 13 14 14 15 15
7 8 8 8 7 7 7 7 7 6 6 6 5 5 5 5 4 4 4 4 4 4 4 5 5 5 6 7 7 7 8 9 10 11 12 12 13 13 13 13 13 14 14
7 8 8 8 8 7 7 7 7 6 6 5 5 5 5 4 4 4 4 4 4 4 4 4 4 4 4 5 5 6 7 7 8 9 10 11 11 12 12 13 13 13 14
7 7 8 8 8 7 7 7 6 6 5 5 5 4 4 4 4 4 4 4 4 4 3 3 3 3 3 3 3 4 5 6 7 8 9 9 10 11 11 11 12 12 13
7 7 8 8 7 7 7 6 6 6 5 4 4 4 4 3 3 3 3 4 4 3 3 3 3 2 2 2 2 2 3 4 5 6 7 8 8 9 9 9 10 12 12
7 7 7 7 7 6 6 6 5 5 4 4 3 3 3 3 3 3 3 3 3 3 3 3 2 2 2 2 2 2 2 2 3 5 6 6 7 7 7 7 8 10 11
6 7 6 6 6 6 5 5 5 4 4 4 3 3 4 4 4 3 4 4 3 3 3 3 2 2 1 1 1 1 1 1 2 3 3 4 5 5 5 6 6 8 10
6 6 6 6 6 6 5 5 4 4 4 3 3 3 4 4 4 4 3 3 3 2 2 2 1 1 1 1 0 0 -0 0 1 1 2 2 3 4 4 4 5 6 8
5 5 6 6 6 5 5 4 4 4 3 3 3 3 3 3 3 3 2 2 1 1 1 0 0 -0 -0 0 0 -1 -1 -1 -1 -0 -0 0 1 2 3 3 3 4 6
4 5 5 6 5 5 5 4 4 3 3 3 2 2 2 2 2 1 1 0 0 -0 -1 -1 -1 -1 -1 -1 -1 -2 -2 -3 -3 -2 -2 -1 -0 0 1 2 2 3 4
4 5 5 5 5 5 4 4 3 2 2 2 2 1 1 1 1 0 -0 -1 -1 -2 -2 -3 -3 -3 -3 -3 -3 -4 -4 -4 -4 -4 -3 -3 -2 -1 -0 1 1 2 3
4 4 4 5 5 4 4 3 2 2 1 1 1 0 0 0 -0 -1 -1 -2 -3 -4 -4 -5 -5 -5 -5 -5 -5 -5 -5 -5 -5 -5 -5 -4 -3 -2 -2 -1 0 1 2
4 4 4 4 4 4 3 3 2 1 1 0 0 -0 -1 -1 -1 -2 -2 -3 -4 -5 -5 -5 -6 -6 -6 -6 -7 -7 -7 -6 -6 -6 -6 -5 -5 -4 -3 -2 -1 0 1
3 3 4 4 4 4 3 2 1 1 0 -0 -0 -1 -1 -2 -2 -3 -3 -4 -5 -6 -6 -6 -7 -7 -8 -8 -8 -8 -8 -8 -8 -7 -7 -7 -6 -5 -4 -3 -1 -0 1
3 3 4 4 4 3 2 2 1 0 -0 -0 -1 -1 -2 -2 -3 -4 -4 -5 -6 -6 -7 -7 -8 -8 -8 -9 -9 -9 -9 -9 -9 -8 -8 -8 -7 -6 -5 -4 -2 -1 -0
3 3 3 4 3 3 2 1 1 0 -0 -1 -1 -1 -2 -3 -4 -4 -5 -6 -7 -7 -7 -8 -8 -9 -9 -9 -10 -10 -10 -10 -9 -9 -9 -8 -8 -7 -6 -5 -3 -2 -1
3 3 3 3 3 3 2 1 1 -0 -0 -1 -1 -2 -3 -3 -4 -5 -6 -6 -7 -8 -8 -9 -9 -10 -10 -10 -10 -10 -10 -10 -10 -10 -10 -9 -8 -7 -6 -5 -4 -3 -2
3 2 2 3 3 2 2 1 1 0 -0 -1 -1 -2 -3 -4 -5 -6 -6 -7 -8 -8 -8 -9 -10 -10 -10 -10 -10 -10 -11 -11 -11 -10 -10 -9 -9 -7 -6 -5 -4 -3 -3
2 2 2 2 2 2 2 1 1 0 -0 -1 -2 -3 -4 -4 -5 -6 -7 -7 -8 -9 -9 -9 -10 -10 -10 -10 -11 -11 -11 -11 -11 -11 -10 -10 -9 -8 -7 -6 -5 -4 -3
3 2 1 2 2 2 2 1 1 0 -0 -1 -3 -3 -4 -5 -6 -7 -8 -8 -9 -9 -9 -10 -10 -10 -10 -10 -11 -11 -11 -11 -11 -11 -11 -10 -10 -9 -8 -7 -6 -5 -4
2 2 1 2 2 2 1 1 0 -0 -1 -2 -3 -4 -4 -6 -6 -7 -8 -9 -9 -9 -10 -10 -10 -10 -10 -10 -11 -11 -11 -11 -11 -11 -11 -10 -10 -9 -8 -7 -6 -5 -5
3 2 1 1 2 1 1 1 -0 -1 -1 -2 -3 -4 -5 -6 -7 -8 -8 -9 -9 -10 -10 -10 -10 -10 -10 -10 -10 -11 -11 -11 -11 -11 -11 -10 -10 -9 -9 -8 -7 -6 -5
3 2 2 1 1 1 1 0 -0 -1 -2 -3 -4 -5 -5 -6 -7 -8 -9 -9 -10 -10 -10 -10 -10 -10 -10 -10 -10 -11 -11 -11 -11 -11 -11 -10 -10 -9 -8 -8 -7 -6 -5
3 2 2 1 1 1 1 0 -0 -1 -2 -3 -4 -5 -5 -6 -7 -8 -9 -9 -10 -10 -10 -10 -10 -10 -10 -10 -10 -11 -11 -11 -11 -11 -11 -11 -10 -9 -8 -8 -7 -6 -5
Wind_Speed
6 13 17 18 20 21 22 22 23 24 25 26 27 27 28 28 28 28 29 29 29 29 29 29 30 30 30 30 30 31 31 31 30 31 32 31 28 27 25 23 20 16 17
8 13 16 17 19 20 20 21 22 23 24 25 26 26 26 27 27 27 28 28 29 29 29 29 29 29 30 30 30 30 30 31 31 31 31 27 26 27 26 26 24 19 20
11 14 15 16 17 19 20 21 22 23 23 24 25 25 26 26 26 26 26 27 28 28 28 29 29 29 30 30 30 30 30 30 31 31 28 24 24 26 26 26 26 25 23
12 14 14 15 16 18 19 20 21 22 23 23 24 25 25 25 25 25 26 26 27 27 27 27 28 28 29 30 30 30 30 30 30 30 24 23 24 24 25 26 26 26 25
13 14 13 14 15 17 18 19 20 21 22 23 23 24 25 25 25 25 25 26 26 26 27 27 27 27 28 28 29 30 30 30 30 26 24 24 23 23 24 25 25 26 26
12 13 12 13 14 16 17 18 19 20 21 22 22 24 24 24 24 25 25 25 26 27 27 27 27 27 27 28 28 29 29 29 28 24 23 23 22 23 24 24 24 25 26
10 10 10 11 12 13 15 17 18 19 20 20 21 23 23 23 24 24 24 25 26 27 27 27 27 28 28 28 28 28 28 28 26 24 24 23 22 24 24 23 23 25 26
9 8 8 9 10 11 12 14 16 17 18 19 20 22 23 23 23 24 24 25 26 27 28 28 28 28 28 29 28 28 27 27 25 24 24 22 23 25 25 24 24 25 25
9 8 8 10 10 10 11 12 14 15 17 18 19 21 22 22 23 24 24 26 27 28 29 29 29 29 30 29 28 27 27 28 25 22 22 21 25 26 26 25 25 25 26
8 8 8 10 10 10 11 11 13 14 15 17 18 21 22 22 22 23 24 26 27 28 29 29 30 31 31 29 29 28 29 26 22 22 21 23 27 28 27 27 26 27 26
7 7 8 9 9 10 10 11 12 13 14 16 17 19 20 20 21 21 23 26 27 28 28 28 30 31 30 28 29 30 27 21 24 22 22 25 28 29 29 28 28 28 27
7 5 8 7 8 9 9 10 11 11 12 14 15 17 18 19 19 19 22 24 25 26 26 27 29 28 26 24 26 28 23 24 23 21 22 28 30 30 31 31 30 29 29
8 5 6 5 6 8 9 9 10 10 11 13 13 15 16 17 17 18 19 20 22 22 22 23 23 23 24 24 25 25 25 24 22 22 24 30 32 32 32 32 32 31 30
8 6 5 4 5 6 7 8 9 9 10 11 12 13 14 14 15 16 17 19 19 19 19 19 20 22 23 24 24 24 25 24 24 25 26 31 33 33 34 33 33 33 31
8 7 4 3 4 5 5 7 8 9 9 11 11 11 13 13 13 15 16 17 18 19 18 19 19 20 20 21 22 23 24 26 27 27 26 32 34 35 35 34 34 34 33
8 7 4 3 3 4 5 6 8 8 9 9 9 11 12 13 14 14 15 16 16 17 19 19 19 19 18 18 18 22 24 26 25 27 28 30 34 35 36 35 34 34 33
8 6 5 2 1 3 5 6 7 8 8 7 8 10 11 13 14 14 14 14 16 18 19 19 18 17 15 15 13 19 21 23 25 27 29 28 29 32 35 35 34 33 32
8 6 4 2 1 3 4 6 7 7 7 6 7 8 9 12 14 14 13 13 17 18 17 14 11 6 9 10 10 10 17 20 23 26 28 29 29 28 30 34 34 32 31
8 7 6 4 1 2 4 6 7 7 6 7 6 7 9 11 13 14 13 15 17 16 14 14 8 8 10 10 11 11 9 11 17 24 25 28 29 29 28 30 32 30 28
8 7 6 4 2 1 2 5 6 5 6 7 6 7 10 11 13 14 14 15 16 12 8 7 10 9 9 10 15 15 11 11 13 14 18 22 24 27 26 24 21 20 23
9 8 6 4 2 1 1 2 3 3 4 6 7 8 10 11 13 14 13 13 13 8 7 9 10 11 10 8 11 14 12 11 13 13 12 14 19 23 22 20 16 14 15
11 9 7 5 3 2 1 1 3 4 4 7 7 7 10 12 14 14 13 11 12 8 9 9 10 9 12 9 10 15 15 14 10 14 13 15 16 16 17 20 17 15 14
11 10 7 5 4 3 1 2 3 3 4 4 3 4 9 13 15 14 14 13 12 9 8 10 10 11 12 11 7 8 11 15 17 13 13 14 14 14 14 13 15 15 16
10 9 8 6 5 4 3 3 3 4 4 5 4 4 10 13 14 14 15 14 13 11 8 10 9 9 11 12 10 7 9 12 14 16 12 11 15 15 14 14 13 14 16
11 10 8 7 6 5 4 3 4 5 4 4 5 6 6 10 13 14 15 13 13 12 10 9 9 10 9 11 11 11 12 12 12 12 16 16 14 12 13 13 12 12 15
11 10 8 7 7 6 5 5 5 5 6 7 7 6 6 5 8 13 14 13 14 13 10 10 9 11 10 11 10 10 12 12 12 11 13 15 15 14 13 13 13 11 12
Wind_Direction
31 31 20 19 21 23 24 25 26 26 26 25 24 23 21 20 18 17 15 14 12 10 9 7 6 4 2 1 358 356 354 352 351 349 344 339 339 341 342 344 343 335 333
40 36 25 23 25 26 27 27 27 27 26 24 23 21 19 18 16 14 13 11 9 7 6 4 3 1 359 358 356 353 351 349 348 347 342 339 340 339 342 345 344 338 333
55 46 28 27 28 29 29 28 27 26 24 22 20 18 17 15 14 12 11 9 7 5 3 1 359 357 355 353 352 350 348 347 345 343 341 339 338 334 336 340 340 339 336
66 55 33 32 32 31 30 28 26 24 22 19 18 15 13 12 11 9 8 7 5 2 0 358 356 353 351 349 347 345 344 342 342 341 339 333 331 328 329 334 336 335 334
76 69 41 36 35 33 31 28 25 22 19 17 15 13 10 8 7 6 5 4 2 359 357 355 353 350 348 346 343 341 339 338 337 337 331 327 323 322 324 327 330 331 330
78 76 54 39 36 33 30 27 23 20 17 14 12 10 7 5 4 3 2 1 358 356 354 352 350 347 345 343 340 337 335 334 334 330 325 320 317 317 318 320 324 326 325
81 79 68 45 36 32 28 24 20 17 13 11 10 7 4 2 1 0 360 358 355 353 351 349 347 345 343 340 337 335 333 331 329 326 319 313 312 313 314 316 320 321 321
88 75 68 49 35 28 25 20 15 12 10 7 6 5 2 360 358 357 357 354 352 350 348 346 344 343 341 338 335 334 332 330 326 319 311 309 311 312 312 313 316 316 315
88 74 64 54 32 18 17 16 9 8 6 4 4 2 360 358 356 355 355 351 349 348 346 344 342 341 339 337 335 334 332 328 325 314 313 316 310 308 308 309 310 311 310
103 80 55 56 35 17 6 5 3 4 3 1 1 360 359 357 353 351 350 347 346 345 343 342 341 340 338 338 336 333 331 330 322 318 315 310 304 304 304 305 306 306 305
110 92 66 50 34 14 2 2 359 358 359 359 359 357 356 353 349 346 345 344 344 343 341 340 340 339 339 336 333 331 331 324 319 314 307 302 302 302 302 302 302 301 300
106 88 74 54 35 18 5 357 354 352 355 354 357 355 354 352 345 345 343 341 341 339 340 338 337 338 335 331 329 328 323 318 316 310 307 306 304 302 300 299 297 296 296
111 93 81 66 48 23 1 352 344 345 351 348 353 352 354 349 343 343 342 338 337 336 336 334 335 332 329 327 324 321 319 318 314 311 308 304 301 299 297 295 294 292 291
120 114 90 67 61 30 360 338 335 344 346 342 348 350 353 345 343 344 339 334 334 332 331 333 331 325 324 322 320 318 318 317 313 310 305 302 300 298 295 292 290 289 286
132 125 111 79 56 24 347 333 338 337 339 336 343 349 352 350 344 340 333 330 329 329 331 329 322 320 320 317 316 317 315 313 310 306 304 302 300 297 294 291 288 286 283
136 128 110 80 41 5 351 342 329 326 327 334 342 347 351 354 342 335 327 324 323 327 326 320 318 317 315 314 314 315 312 309 307 306 305 303 299 296 293 289 286 283 281
134 130 126 140 32 4 352 332 318 312 325 333 342 343 350 351 338 332 321 319 321 324 321 317 313 312 313 316 313 311 309 307 306 304 302 300 296 293 290 287 284 281 278
143 146 137 161 355 3 343 322 310 310 328 331 339 338 345 339 331 328 319 315 318 321 317 312 308 313 311 309 308 307 306 306 305 305 302 298 294 291 287 285 283 280 278
155 150 158 155 209 350 332 317 312 317 330 327 329 330 332 327 326 325 315 310 317 316 311 312 319 309 307 307 305 303 304 306 303 302 300 297 293 288 282 278 277 277 277
153 155 168 167 169 25 347 331 317 325 324 314 311 314 323 321 321 318 309 311 314 309 305 304 304 301 301 302 307 307 301 298 299 298 298 302 304 297 287 278 276 276 277
159 170 175 171 152 104 45 330 311 313 302 299 299 310 317 316 314 309 305 307 308 302 299 299 302 305 304 301 306 307 302 294 294 297 301 307 304 304 303 297 288 279 278
172 173 170 168 158 151 134 271 257 264 270 281 287 312 313 310 306 306 305 303 302 300 300 300 303 304 307 309 307 310 310 308 300 306 304 301 302 308 306 304 299 291 285
175 168 171 160 171 185 181 261 283 283 287 299 321 314 305 303 302 302 301 300 301 300 298 300 302 306 309 306 293 296 304 306 310 302 299 298 302 302 300 299 295 289 283
169 149 153 166 187 192 200 241 279 289 291 294 293 283 296 304 307 307 302 302 302 298 294 300 311 303 303 306 303 284 278 286 298 306 305 299 302 303 307 307 305 300 292
151 148 159 174 194 194 203 235 257 270 278 287 291 292 298 304 304 303 303 305 301 297 295 298 302 300 300 299 302 301 298 293 286 291 301 306 307 303 302 302 300 294 289
145 150 162 182 200 196 205 232 246 266 282 294 298 301 300 295 297 300 306 308 302 298 299 300 300 301 298 297 301 300 299 297 296 291 291 297 301 302 300 297 293 290 284
Height
1616 1614 1611 1609 1607 1605 1602 1599 1597 1594 1592 1589 1587 1584 1582 1579 1577 1575 1572 1570 1568 1566 1564 1561 1559 1557 1555 1553 1551 1550 1548 1547 1546 1545 1546 1546 1546 1546 1545 1545 1545 1545 1545
1614 1612 1610 1608 1606 1604 1602 1599 1596 1594 1591 1589 1586 1584 1581 1579 1577 1574 1572 1569 1567 1565 1563 1561 1558 1556 1554 1551 1549 1547 1545 1544 1543 1542 1542 1543 1543 1543 1542 1542 1542 1542 1543
1612 1611 1609 1607 1605 1603 1601 1598 1596 1593 1591 1588 1586 1583 1581 1578 1576 1573 1571 1568 1566 1564 1561 1559 1557 1554 1552 1550 1547 1545 1543 1541 1539 1538 1538 1538 1539 1539 1539 1538 1538 1539 1539
1611 1610 1608 1606 1604 1602 1600 1598 1595 1593 1590 1588 1585 1583 1580 1578 1575 1572 1570 1567 1564 1562 1559 1557 1554 1552 1550 1548 1545 1543 1540 1538 1536 1535 1534 1534 1534 1534 1535 1534 1534 1535 1535
1610 1608 1607 1605 1603 1601 1599 1597 1595 1592 1590 1587 1585 1582 1579 1577 1574 1571 1568 1565 1562 1560 1557 1555 1552 1549 1547 1544 1542 1540 1538 1535 1533 1531 1530 1529 1529 1529 1530 1530 1530 1530 1531
1608 1607 1606 1604 1603 1601 1598 1596 1594 1591 1589 1586 1584 1581 1578 1576 1573 1570 1567 1564 1561 1558 1555 1552 1549 1547 1544 1541 1538 1536 1534 1532 1529 1528 1526 1525 1524 1524 1524 1525 1525 1525 1526
1607 1606 1605 1603 1602 1600 1597 1595 1593 1590 1588 1585 1583 1580 1577 1575 1572 1569 1566 1563 1559 1556 1553 1550 1547 1544 1541 1538 1535 1532 1530 1527 1525 1523 1522 1521 1519 1519 1519 1519 1519 1520 1521
1606 1605 1604 1602 1600 1598 1596 1594 1591 1589 1586 1584 1581 1578 1576 1573 1570 1568 1564 1561 1558 1554 1551 1547 1544 1541 1537 1534 1531 1528 1525 1523 1520 1518 1517 1516 1515 1515 1514 1513 1513 1513 1514
1604 1604 1602 1601 1599 1597 1595 1592 1590 1587 1585 1583 1580 1577 1575 1572 1569 1566 1563 1559 1556 1552 1549 1545 1541 1538 1534 1531 1527 1524 1521 1518 1515 1513 1512 1511 1510 1510 1509 1508 1507 1506 1507
1603 1602 1601 1599 1598 1596 1593 1591 1589 1586 1584 1581 1578 1576 1573 1570 1567 1564 1561 1557 1554 1550 1546 1542 1538 1534 1530 1527 1523 1520 1516 1513 1510 1508 1506 1505 1505 1504 1503 1502 1501 1500 1500
1601 1600 1599 1598 1596 1594 1592 1590 1587 1585 1582 1579 1576 1574 1571 1568 1564 1561 1558 1554 1551 1547 1543 1539 1535 1530 1526 1522 1518 1515 1511 1507 1505 1502 1500 1499 1499 1499 1497 1496 1495 1494 1493
1599 1598 1597 1595 1594 1592 1590 1587 1585 1582 1579 1577 1574 1571 1568 1564 1561 1557 1554 1550 1546 1542 1538 1534 1530 1526 1521 1517 1513 1509 1505 1502 1499 1497 1494 1494 1493 1492 1491 1489 1488 1487 1487
1596 1596 1594 1593 1591 1590 1587 1585 1582 1580 1577 1574 1571 1568 1564 1561 1557 1553 1549 1545 1541 1537 1533 1529 1525 1521 1517 1513 1509 1505 1501 1497 1494 1491 1488 1487 1486 1484 1483 1482 1481 1480 1480
1593 1593 1592 1591 1589 1587 1585 1582 1580 1577 1574 1571 1568 1564 1560 1557 1553 1549 1545 1540 1536 1532 1528 1524 1520 1517 1513 1509 1505 1501 1497 1493 1489 1485 1482 1480 1479 1477 1476 1474 1473 1473 1473
1591 1590 1589 1588 1586 1584 1582 1579 1577 1574 1571 1568 1565 1561 1557 1553 1549 1545 1540 1536 1533 1529 1525 1521 1516 1512 1509 1505 1501 1497 1492 1488 1483 1480 1476 1473 1471 1469 1467 1466 1465 1465 1465
1588 1587 1586 1585 1584 1582 1579 1577 1574 1571 1568 1565 1562 1558 1554 1550 1546 1541 1537 1533 1529 1525 1521 1517 1513 1509 1504 1500 1496 1492 1488 1483 1478 1474 1469 1465 1462 1460 1459 1458 1457 1457 1457
1584 1584 1583 1582 1581 1579 1576 1574 1571 1568 1565 1562 1559 1555 1551 1547 1542 1538 1534 1530 1526 1522 1518 1514 1509 1505 1501 1496 1491 1487 1482 1477 1472 1467 1463 1458 1454 1451 1450 1449 1449 1448 1449
1580 1580 1579 1579 1578 1575 1573 1570 1567 1565 1562 1559 1556 1552 1548 1544 1539 1535 1531 1527 1523 1519 1515 1511 1506 1502 1497 1492 1486 1481 1477 1472 1466 1461 1456 1451 1447 1444 1441 1440 1440 1440 1441
1577 1576 1576 1575 1574 1572 1570 1567 1564 1562 1559 1556 1553 1549 1545 1541 1536 1532 1528 1524 1520 1516 1512 1508 1503 1498 1493 1487 1482 1476 1471 1466 1460 1455 1449 1444 1440 1436 1433 1431 1431 1432 1432
1572 1572 1572 1571 1570 1568 1566 1564 1561 1559 1556 1553 1549 1546 1542 1538 1534 1529 1525 1521 1517 1513 1509 1504 1499 1495 1490 1484 1477 1471 1465 1459 1454 1449 1444 1438 1433 1429 1426 1425 1424 1424 1424
1567 1568 1568 1567 1566 1565 1563 1560 1558 1556 1553 1550 1546 1543 1539 1535 1530 1526 1522 1518 1514 1510 1506 1501 1496 1491 1485 1480 1473 1465 1459 1454 1448 1443 1438 1433 1427 1423 1419 1418 1417 1417 1417
1562 1563 1563 1563 1562 1561 1559 1557 1554 1551 1549 1546 1543 1539 1535 1531 1527 1523 1519 1515 1511 1507 1502 1498 1493 1488 1481 1477 1471 1462 1453 1446 1442 1438 1433 1427 1422 1417 1413 1411 1410 1410 1411
1558 1558 1558 1559 1558 1557 1555 1553 1550 1548 1545 1542 1539 1536 1532 1528 1524 1520 1516 1512 1508 1504 1499 1495 1490 1485 1478 1472 1468 1463 1454 1444 1436 1430 1426 1422 1418 1413 1409 1406 1405 1405 1405
1552 1553 1554 1554 1554 1553 1551 1549 1546 1544 1541 1538 1535 1531 1527 1524 1520 1516 1512 1508 1504 1500 1496 1491 1487 1482 1476 1469 1463 1458 1453 1446 1437 1426 1419 1416 1413 1409 1405 1403 1401 1400 1400
1547 1547 1549 1550 1550 1549 1547 1545 1543 1540 1537 1534 1531 1527 1524 1520 1516 1512 1508 1504 1500 1496 1492 1487 1483 1478 1473 1467 1460 1454 1447 1441 1436 1430 1419 1412 1407 1404 1401 1399 1396 1395 1395
1541 1542 1544 1545 1545 1544 1543 1541 1539 1537 1534 1530 1527 1523 1519 1515 1512 1508 1505 1500 1496 1492 1488 1483 1478 1473 1468 1463 1457 1451 1445 1438 1431 1426 1419 1412 1405 1400 1397 1395 1393 1391 1390